This is the latest recevied weather packets stored in our database for station/object AD4CG. If no packets are shown the sender has not sent any weather packets the latest 10 day(s).
| Time | Temp. | Humidity | Pressure | Rain* | Wind** | Luminosity | Snow |
|---|---|---|---|---|---|---|---|
| 1777288179 | 11.11° C | 73% | 1022.7 hPa | 0 mm | - | - | - |
| 1777287551 | 11.11° C | 73% | 1022.7 hPa | 0 mm | - | - | - |
| 1777286610 | 11.11° C | 74% | 1022.4 hPa | 0 mm | - | - | - |
| 1777279736 | 11.11° C | 85% | 1021.3 hPa | 0 mm | - | - | - |
| 1777279099 | 11.11° C | 85% | 1021.7 hPa | 0 mm | - | - | - |
| 1777278449 | 11.11° C | 85% | 1021.3 hPa | 0 mm | - | - | - |
| 1777277810 | 11.11° C | 84% | 1021.3 hPa | 0 mm | - | - | - |
| 1777276196 | 11.11° C | 84% | 1021 hPa | 0 mm | - | - | - |
| 1777275237 | 11.11° C | 85% | 1021.3 hPa | 0 mm | - | - | - |
| 1777264509 | 11.11° C | 81% | 1021.3 hPa | 0 mm | - | - | - |
| 1777262284 | 11.67° C | 82% | 1021.3 hPa | 0 mm | - | - | - |
| 1777261024 | 11.67° C | 82% | 1021 hPa | 0 mm | - | - | - |
| 1777260702 | 11.67° C | 82% | 1021 hPa | 0 mm | - | - | - |
| 1777256304 | 12.22° C | 80% | 1020 hPa | 0 mm | - | - | - |
| 1777253875 | 12.78° C | 79% | 1020 hPa | 0 mm | - | - | - |
| 1777251827 | 12.78° C | 84% | 1019.3 hPa | 0 mm | - | - | - |
| 1777249481 | 12.78° C | 86% | 1018.6 hPa | 0 mm | - | - | - |
| 1777249162 | 12.78° C | 87% | 1018.6 hPa | 0 mm | - | - | - |
| 1777244476 | 13.33° C | 86% | 1017.9 hPa | 0 mm | - | - | - |
| 1777243184 | 13.89° C | 86% | 1017.6 hPa | 0 mm | - | - | - |
| 1777240623 | 14.44° C | 85% | 1017.6 hPa | 0 mm | - | - | - |
| 1777238082 | 15° C | 90% | 1016.9 hPa | 0 mm | - | - | - |
| 1777237466 | 15° C | 88% | 1016.6 hPa | 0 mm | - | - | - |
| 1777234952 | 15° C | 66% | 1016.3 hPa | 0 mm | - | - | - |
| 1777233073 | 15° C | 66% | 1015.9 hPa | 0 mm | - | - | - |
* Rain latest hour (hover to see other rain measurements)
** Current wind speed in m/s (hover to see current wind gust speed)